Hourly Data Report for August 11, 2022

CARBERRY CS
MANITOBA
Current Station Operator: ECCC - MSC

49°54'20.900" N
99°21'26.800" W
383.50 m
5010547
71170
WZE

Download Data

Hourly Data (August 2022)
Hourly Data Report for August 11, 2022
TIME
LST
Temp Definition
°C
Dew Point Definition
°C
Rel Hum Definition
%
Precip. Amount Definition
mm

Wind Dir Definition
10's deg

Wind Spd Definition
km/h
Visibility Definition
km
Stn Press Definition
kPa
Hmdx Definition


Wind Chill Definition


Weather Definition


00:00 10.7 10.4 98 0.0 9 2   97.97     LegendNANA
01:00 9.5 9.5 100 0.0 9 2   97.96     LegendNANA
02:00 8.2 8.2 100 0.0 5 4   97.94     LegendNANA
03:00 7.6 7.5 100 0.0   0   97.95     LegendNANA
04:00 7.1 7.1 100 0.0   0   97.94     LegendNANA
05:00 6.8 6.8 100 0.0 5 1   97.92     LegendNANA
06:00 8.1 8.0 100 0.0 9 3   97.91     LegendNANA
07:00 12.8 11.7 93 0.0 15 6   97.90     LegendNANA
08:00 15.5 13.1 85 0.0 14 7   97.90     LegendNANA
09:00 18.0 12.3 70 0.0 15 12   97.86     LegendNANA
10:00 19.8 12.8 64 0.0 13 15   97.80     LegendNANA
11:00 20.8 12.5 59 0.0 15 12   97.73     LegendNANA
12:00 21.9 12.6 56 0.0 15 12   97.71     LegendNANA
13:00 22.6 12.7 53 0.0 16 10   97.64 25   LegendNANA
14:00 22.2 13.2 57 0.0 18 12   97.67 25   LegendNANA
15:00 20.9 13.9 64 0.0 15 10   97.58     LegendNANA
16:00 20.6 15.6 73 0.0 17 5   97.60 25   LegendNANA
17:00 19.1 16.3 84 0.0 27 6   97.63     LegendNANA
18:00 17.3 16.1 93 0.4 28 7   97.61     LegendNANA
19:00 17.2 16.1 94 0.0 16 8   97.46     LegendNANA
20:00 16.9 15.8 93 0.0 14 7   97.39     LegendNANA
21:00 16.4 16.1 98 0.0 9 6   97.39     LegendNANA
22:00 16.5 16.1 98 0.0 7 11   97.37     LegendNANA
23:00 16.3 16.3 100 0.2 11 12   97.33     LegendNANA

Notes on Data Quality.

Legend

  • E = Estimated
  • M = Missing
  • NA = Not Available*
  • [empty] = Indicates an unobserved value
Date modified: